Location: Croissy-Beaubourg
(48.8283°N, 2.6696°E)
Time: 22:41:04
(UTC+00:00)

Cosmos 1844 - Pass Details

Date: 16 October 2021
Orbit: 822 x 868 km, 70.9° (Epoch: 07 December)

Event Time Altitude Azimuth Distance (km) Brightness Sun altitude
Rises 20:03:42 0° 332° (NNW) 3,465 7.6 -30.9°
Reaches altitude 10° 20:06:12 10° 334° (NNW) 2,523 6.7 -31.3°
Enters shadow 20:10:21 48° 348° (NNW) 1,130 4.4 -31.9°
